ANA34 RJAA-RKPC

Flight info

Callsign ANA34
Flight time 2h 5m
Altitude 36000
Route REDEK Y60 HABAR Y602 MARCO Y28 DGC A595 SAMDO Y677 TAMNA TAMNA2M
Aircraft A388/J-SADE2E3FGHIJ3J4J5M1RWXY/LB1D1

Departure

Time 2025-09-08 05:42
Airport Narita International Airport (RJAA)

Arrival

Time 2025-09-08 07:47
Airport Jeju International Airport (RKPC)
Time Latitude Longitude Altitude Speed Heading
2025-09-08 05:07 35.76386 140.38214 136 ft 0 kts 60°
2025-09-08 05:10 35.76518 140.39114 130 ft 0 kts 294°
2025-09-08 05:12 35.76125 140.38401 133 ft 0 kts 58°
2025-09-08 05:28 35.76117 140.38387 137 ft 2 kts 57°
2025-09-08 05:29 35.76095 140.38356 137 ft 1 kts 38°
2025-09-08 05:29 35.76085 140.38350 137 ft 1 kts 24°
2025-09-08 05:30 35.76046 140.38346 137 ft 5 kts 359°
2025-09-08 05:30 35.76018 140.38354 137 ft 0 kts 338°
2025-09-08 05:35 35.76024 140.38351 137 ft 4 kts 333°
2025-09-08 05:35 35.76165 140.38255 134 ft 17 kts 329°
2025-09-08 05:36 35.76242 140.38110 130 ft 13 kts 244°
2025-09-08 05:36 35.76265 140.37937 131 ft 16 kts 330°
2025-09-08 05:37 35.76516 140.37752 127 ft 24 kts 331°
2025-09-08 05:37 35.76821 140.37533 133 ft 28 kts 329°
2025-09-08 05:38 35.77165 140.37282 126 ft 30 kts 330°
2025-09-08 05:38 35.77439 140.37082 126 ft 15 kts 330°
2025-09-08 05:39 35.77458 140.36903 127 ft 15 kts 241°
2025-09-08 05:39 35.77413 140.36849 126 ft 6 kts 171°
2025-09-08 05:40 35.77390 140.36862 125 ft 0 kts 148°
2025-09-08 05:40 35.76842 140.37266 133 ft 119 kts 149°
2025-09-08 05:41 35.75018 140.38582 725 ft 159 kts 150°
2025-09-08 05:41 35.73082 140.39998 1776 ft 164 kts 147°
2025-09-08 05:42 35.70880 140.41588 2324 ft 203 kts 149°
2025-09-08 05:42 35.68263 140.43462 2579 ft 234 kts 149°
2025-09-08 05:43 35.65184 140.45676 3270 ft 271 kts 149°
2025-09-08 05:43 35.61958 140.47994 5062 ft 266 kts 149°
2025-09-08 05:43 35.60350 140.49152 5800 ft 271 kts 150°
2025-09-08 05:44 35.55355 140.52607 7928 ft 284 kts 153°
2025-09-08 05:45 35.51891 140.55057 9391 ft 287 kts 150°
2025-09-08 05:45 35.48484 140.57618 10892 ft 290 kts 151°
2025-09-08 05:46 35.44813 140.59668 12157 ft 292 kts 178°
2025-09-08 05:46 35.40992 140.58126 12811 ft 313 kts 224°
2025-09-08 05:47 35.38531 140.53446 13146 ft 346 kts 244°
2025-09-08 05:47 35.36300 140.47999 14088 ft 362 kts 249°
2025-09-08 05:47 35.35747 140.44990 14782 ft 363 kts 266°
2025-09-08 05:48 35.37277 140.36088 17103 ft 361 kts 284°
2025-09-08 05:49 35.38645 140.30127 18469 ft 363 kts 284°
2025-09-08 05:49 35.39976 140.24304 20033 ft 357 kts 283°
2025-09-08 05:50 35.41319 140.18395 21202 ft 363 kts 283°
2025-09-08 05:50 35.42684 140.12372 22389 ft 370 kts 283°
2025-09-08 05:51 35.44044 140.06382 24152 ft 354 kts 282°
2025-09-08 05:51 35.44704 140.03464 24665 ft 358 kts 282°
2025-09-08 05:53 35.47480 139.89144 26903 ft 367 kts 265°
2025-09-08 05:54 35.41214 139.68125 30162 ft 389 kts 248°
2025-09-08 05:57 35.34050 139.36223 34769 ft 401 kts 265°
2025-09-08 05:59 35.32903 139.12165 35867 ft 406 kts 265°
2025-09-08 06:01 35.31366 138.81136 35906 ft 399 kts 265°
2025-09-08 06:03 35.30142 138.57534 35908 ft 398 kts 264°
2025-09-08 06:05 35.28649 138.29759 35915 ft 417 kts 265°
2025-09-08 06:06 35.27206 138.04193 35912 ft 440 kts 265°
2025-09-08 06:09 35.25072 137.69950 35914 ft 484 kts 264°
2025-09-08 06:11 35.18504 137.39752 35890 ft 437 kts 250°
2025-09-08 06:13 35.09838 137.12038 36599 ft 436 kts 244°
2025-09-08 06:15 35.02558 136.84714 37854 ft 415 kts 254°
2025-09-08 06:17 34.95472 136.56962 37856 ft 434 kts 253°
2025-09-08 06:19 34.88575 136.29401 36898 ft 418 kts 253°
2025-09-08 06:21 34.81598 136.01827 35883 ft 446 kts 253°
2025-09-08 06:22 34.75281 135.76797 37002 ft 441 kts 261°
2025-09-08 06:25 34.66999 135.45099 37876 ft 441 kts 253°
2025-09-08 06:26 34.62062 135.19867 37883 ft 442 kts 258°
2025-09-08 06:29 34.56026 134.86607 37876 ft 454 kts 257°
2025-09-08 06:30 34.51150 134.60123 37896 ft 465 kts 257°
2025-09-08 06:33 34.44749 134.25859 37892 ft 465 kts 257°
2025-09-08 06:34 34.39708 133.99259 37932 ft 464 kts 257°
2025-09-08 06:37 34.33088 133.64811 37936 ft 470 kts 257°
2025-09-08 06:38 34.28557 133.37906 37925 ft 465 kts 259°
2025-09-08 06:41 34.22288 132.99576 37941 ft 466 kts 258°
2025-09-08 06:43 34.17817 132.72719 37929 ft 468 kts 258°
2025-09-08 06:45 34.12617 132.41957 37915 ft 471 kts 258°
2025-09-08 06:47 34.07169 132.11252 37903 ft 466 kts 255°
2025-09-08 06:49 34.00436 131.81035 37919 ft 470 kts 255°
2025-09-08 06:51 33.93613 131.50825 37922 ft 469 kts 255°
2025-09-08 06:53 33.86720 131.20677 37893 ft 469 kts 255°
2025-09-08 06:55 33.79749 130.90547 37894 ft 470 kts 254°
2025-09-08 06:57 33.72699 130.60436 37902 ft 469 kts 253°
2025-09-08 06:58 33.68245 130.33770 37904 ft 473 kts 275°
2025-09-08 07:01 33.72331 129.98816 37887 ft 466 kts 277°
2025-09-08 07:02 33.74165 129.72035 37884 ft 460 kts 262°
2025-09-08 07:05 33.70456 129.37703 37888 ft 461 kts 262°
2025-09-08 07:06 33.67522 129.11086 37885 ft 462 kts 262°
2025-09-08 07:09 33.63541 128.75800 37877 ft 483 kts 262°
2025-09-08 07:11 33.59847 128.43851 37879 ft 492 kts 262°
2025-09-08 07:13 33.56127 128.11176 37882 ft 492 kts 263°
2025-09-08 07:15 33.52556 127.79779 35521 ft 478 kts 262°
2025-09-08 07:17 33.49093 127.50007 26026 ft 426 kts 261°
2025-09-08 07:17 33.48241 127.42799 23396 ft 446 kts 262°
2025-09-08 07:18 33.47382 127.35523 21642 ft 436 kts 261°
2025-09-08 07:18 33.46675 127.29569 20733 ft 431 kts 261°
2025-09-08 07:19 33.45706 127.21472 18696 ft 415 kts 260°
2025-09-08 07:19 33.44483 127.11344 16442 ft 403 kts 260°
2025-09-08 07:20 33.44083 127.08051 15735 ft 398 kts 260°
2025-09-08 07:20 33.43426 127.02648 14534 ft 391 kts 261°
2025-09-08 07:21 33.42523 126.95244 12763 ft 382 kts 261°
2025-09-08 07:21 33.41783 126.88972 11532 ft 378 kts 265°
2025-09-08 07:22 33.42610 126.83857 11013 ft 385 kts 293°
2025-09-08 07:22 33.45946 126.78851 10971 ft 388 kts 311°
2025-09-08 07:23 33.49556 126.74349 10978 ft 357 kts 309°
2025-09-08 07:23 33.51197 126.72146 10976 ft 352 kts 308°
2025-09-08 07:24 33.57457 126.67805 10936 ft 371 kts 355°
2025-09-08 07:24 33.62391 126.69454 10781 ft 378 kts 26°
2025-09-08 07:25 33.66975 126.72556 10632 ft 378 kts 27°
2025-09-08 07:25 33.71592 126.75527 10470 ft 375 kts 25°
2025-09-08 07:26 33.76183 126.78348 10337 ft 367 kts 25°
2025-09-08 07:26 33.78431 126.79720 10260 ft 356 kts 25°
2025-09-08 07:26 33.82619 126.82279 10005 ft 327 kts 25°
2025-09-08 07:27 33.86492 126.84652 9956 ft 296 kts 26°
2025-09-08 07:28 33.89347 126.90523 9617 ft 280 kts 78°
2025-09-08 07:28 33.90222 126.95045 9308 ft 276 kts 77°
2025-09-08 07:29 33.91015 126.99517 9001 ft 273 kts 93°
2025-09-08 07:29 33.89410 127.03390 8961 ft 262 kts 139°
2025-09-08 07:30 33.86704 127.06328 8961 ft 262 kts 141°
2025-09-08 07:30 33.85319 127.07750 8960 ft 260 kts 148°
2025-09-08 07:30 33.82217 127.09926 8961 ft 258 kts 154°
2025-09-08 07:31 33.77526 127.13006 8959 ft 255 kts 165°
2025-09-08 07:32 33.74127 127.14161 8959 ft 254 kts 167°
2025-09-08 07:32 33.70736 127.15330 8963 ft 253 kts 171°
2025-09-08 07:33 33.67286 127.15627 8962 ft 250 kts 182°
2025-09-08 07:33 33.63812 127.15755 8961 ft 250 kts 181°
2025-09-08 07:33 33.62078 127.15781 8959 ft 249 kts 187°
2025-09-08 07:34 33.58709 127.14981 8957 ft 246 kts 195°
2025-09-08 07:34 33.55679 127.13357 8961 ft 241 kts 231°
2025-09-08 07:35 33.54975 127.09579 8798 ft 244 kts 283°
2025-09-08 07:36 33.56663 127.04080 8085 ft 213 kts 287°
2025-09-08 07:36 33.58123 126.99153 7074 ft 213 kts 287°
2025-09-08 07:37 33.58622 126.97467 6946 ft 218 kts 287°
2025-09-08 07:37 33.59631 126.94079 6449 ft 213 kts 287°
2025-09-08 07:37 33.60127 126.92414 5762 ft 211 kts 287°
2025-09-08 07:38 33.61105 126.89121 3941 ft 209 kts 287°
2025-09-08 07:38 33.62076 126.85839 2805 ft 209 kts 287°
2025-09-08 07:39 33.64027 126.79253 3665 ft 206 kts 287°
2025-09-08 07:40 33.64507 126.77624 3885 ft 207 kts 287°
2025-09-08 07:40 33.64249 126.74494 3744 ft 185 kts 236°
2025-09-08 07:41 33.62849 126.71952 2942 ft 184 kts 237°
2025-09-08 07:41 33.61499 126.69323 2854 ft 186 kts 237°
2025-09-08 07:42 33.60160 126.66704 2877 ft 186 kts 238°
2025-09-08 07:42 33.59485 126.65385 2876 ft 185 kts 237°
2025-09-08 07:42 33.58183 126.62839 2500 ft 180 kts 237°
2025-09-08 07:43 33.56457 126.59463 1911 ft 146 kts 238°
2025-09-08 07:44 33.55395 126.57396 1582 ft 148 kts 238°
2025-09-08 07:44 33.54341 126.55271 1215 ft 150 kts 238°
2025-09-08 07:45 33.53248 126.53204 770 ft 145 kts 240°
2025-09-08 07:45 33.52190 126.51128 444 ft 145 kts 240°
2025-09-08 07:46 33.51178 126.49140 66 ft 119 kts 237°
2025-09-08 07:46 33.50854 126.48517 91 ft 49 kts 237°
2025-09-08 07:46 33.50620 126.48091 93 ft 30 kts 231°
2025-09-08 07:47 33.50393 126.47894 100 ft 3 kts 187°
2025-09-08 07:48 33.50379 126.47985 99 ft 12 kts 48°
2025-09-08 07:48 33.50390 126.48002 97 ft 0 kts 57°
2025-09-08 07:52 33.50458 126.48155 95 ft 0 kts 71°
2025-09-08 07:53 33.50460 126.48169 95 ft 0 kts 99°
2025-09-08 07:53 33.50449 126.48132 95 ft 2 kts 43°
2025-09-08 07:54 33.50474 126.48166 98 ft 4 kts 49°
2025-09-08 07:54 33.50506 126.48235 95 ft 0 kts 64°
2025-09-08 07:55 33.50563 126.48321 91 ft 0 kts 52°
2025-09-08 07:55 33.50549 126.48283 95 ft 4 kts 84°
2025-09-08 07:56 33.50561 126.48336 95 ft 30 kts 65°
2025-09-08 07:56 33.50578 126.48348 95 ft 1 kts 68°
2025-09-08 07:57 33.50590 126.48390 95 ft 5 kts 69°
2025-09-08 07:57 33.50618 126.48479 93 ft 5 kts 76°
2025-09-08 07:58 33.50574 126.48700 88 ft 16 kts 71°
2025-09-08 07:58 33.50691 126.48934 88 ft 13 kts 56°
2025-09-08 07:58 33.50708 126.49006 83 ft 5 kts 125°
2025-09-08 07:59 33.50664 126.49040 85 ft 0 kts 148°